Home   Weather   Sorocaba   Past weeks

Flag for Brazil Past Weather in Sorocaba, São Paulo, Brazil — Yesterday and Last 2 Weeks

Now
73 °F

Clear.


Feels Like: 72 °F
Forecast: N/A
Wind: 2 mph from East

Location: Campinas Aeroporto

Current Time: Dec 10, 2016 at 8:26:15 pm

Latest Report: Dec 10, 2016 at 8:00 pm


Visibility: 10 mi

Pressure: 29.86 "Hg (27.86 "Hg at 602m altitude)

Humidity: 89%

Dew Point: 70 °F

Location of SorocabaLocation

Past Weather in Sorocaba — Graph

°F

Sorocaba Temperature Yesterday

Maximum temperature yesterday: 86 °F (at 4:00 pm)
Minimum temperature yesterday: 36 °F (at 5:00 pm)
Average temperature yesterday: 72 °F

High & Low Weather Summary for the Past Weeks

 TemperatureHumidityPressure
High91 °F (Nov 26, 4:00 pm)100% (Dec 3, 4:00 pm)30.15 "Hg (Dec 3, 4:00 pm)
Low36 °F (Dec 9, 5:00 pm)18% (Dec 6, 4:00 pm)29.68 "Hg (Dec 4, 6:00 pm)
Average74 °F64%29.96 "Hg
* Reported Nov 25 7:00 pm — Dec 10 7:00 pm, Sorocaba, Weather by CustomWeather, © 2016

Note: Actual official high and low records may vary slightly from our data, if they occured in-between our weather recording intervals... More about our weather records

Advertising

Sorocaba Weather History for the Previous 24 Hours

Scroll right to see more
 ConditionsComfort  
Time TempWeatherWind HumidityBarometerVisibility
7:00 pm
Sat, Dec 10
73 °FScattered clouds.3 mph89%29.86 "HgN/A
6:00 pm72 °FBroken clouds.7 mph94%29.86 "HgN/A
5:00 pm73 °FThunderstorms. Scattered clouds.9 mph83%N/AN/A
4:00 pm75 °FScattered clouds.12 mph69%29.86 "HgN/A
3:00 pm84 °FScattered showers. Partly sunny.8 mph45%29.86 "HgN/A
2:00 pm82 °FScattered clouds.10 mph48%29.89 "HgN/A
1:00 pm82 °FPartly sunny.9 mph51%29.92 "HgN/A
12:00 pm79 °FPartly sunny.9 mph61%29.92 "HgN/A
11:00 am77 °FPartly sunny.8 mph65%29.92 "HgN/A
10:00 am75 °FPartly sunny.8 mph83%29.92 "HgN/A
9:00 am73 °FPartly sunny.6 mph89%29.92 "Hg5 mi
8:00 am72 °FPassing clouds.2 mph94%29.92 "Hg5 mi
7:00 am70 °FPassing clouds.No wind94%29.92 "Hg4 mi
6:00 am72 °FPassing clouds.1 mph88%29.92 "HgN/A
5:00 am70 °FClear.5 mph94%29.89 "Hg10 mi
4:00 am70 °FClear.5 mph94%29.89 "Hg10 mi
3:00 am70 °FClear.7 mph94%29.89 "Hg10 mi
2:00 am70 °FClear.6 mph94%29.89 "Hg10 mi
1:00 am70 °FClear.7 mph94%29.92 "Hg10 mi
12:00 am70 °FPassing clouds.8 mph94%29.92 "HgN/A
11:00 pm
Fri, Dec 9
72 °FPassing clouds.8 mph94%29.92 "HgN/A
10:00 pm72 °FPassing clouds.8 mph94%29.92 "HgN/A
9:00 pm72 °FLight rain. Passing clouds.No wind94%29.89 "HgN/A
8:00 pm73 °FLight rain. Passing clouds.No wind89%29.89 "HgN/A
Weather by CustomWeather, © 2016

See weather overviewHow to use our weather pages